This is the latest recevied weather packets stored in our database for station/object K7FLA. If no packets are shown the sender has not sent any weather packets the latest 10 day(s).
| Time | Temp. | Humidity | Pressure | Rain* | Wind** | Luminosity | Snow |
|---|---|---|---|---|---|---|---|
| 1778178514 | 30° C | 34% | 1096.8 hPa | 0 mm | - | 813 W/m² | - |
| 1778178210 | 30° C | 34% | 1096.6 hPa | 0 mm | - | 808 W/m² | - |
| 1778177906 | 30° C | 35% | 1096.9 hPa | 0 mm | - | 802 W/m² | - |
| 1778177602 | 30.56° C | 33% | 1097 hPa | 0 mm | - | 795 W/m² | - |
| 1778177299 | 30.56° C | 31% | 1097 hPa | 0 mm | - | 787 W/m² | - |
| 1778176996 | 30.56° C | 35% | 1097.1 hPa | 0 mm | - | 781 W/m² | - |
| 1778176691 | 30° C | 33% | 1096.9 hPa | 0 mm | - | 773 W/m² | - |
| 1778176389 | 30° C | 32% | 1097.3 hPa | 0 mm | - | 763 W/m² | - |
| 1778176086 | 30.56° C | 33% | 1097.1 hPa | 0 mm | - | 754 W/m² | - |
| 1778175784 | 30.56° C | 33% | 1097.1 hPa | 0 mm | - | 746 W/m² | - |
| 1778175481 | 30° C | 36% | 1097 hPa | 0 mm | - | 736 W/m² | - |
| 1778175178 | 30° C | 33% | 1096.9 hPa | 0 mm | - | 725 W/m² | - |
| 1778174874 | 30° C | 33% | 1097.1 hPa | 0 mm | - | 713 W/m² | - |
| 1778174571 | 29.44° C | 35% | 1097.1 hPa | 0 mm | - | 704 W/m² | - |
| 1778174267 | 30° C | 34% | 1097 hPa | 0 mm | - | 694 W/m² | - |
| 1778173964 | 30° C | 32% | 1097 hPa | 0 mm | - | 679 W/m² | - |
| 1778173661 | 30° C | 35% | 1097.1 hPa | 0 mm | - | 668 W/m² | - |
| 1778173357 | 30° C | 34% | 1097.1 hPa | 0 mm | - | 657 W/m² | - |
| 1778173053 | 29.44° C | 36% | 1097 hPa | 0 mm | - | 644 W/m² | - |
| 1778172749 | 29.44° C | 34% | 1096.9 hPa | 0 mm | - | 630 W/m² | - |
| 1778172446 | 29.44° C | 34% | 1097 hPa | 0 mm | - | 617 W/m² | - |
| 1778172143 | 29.44° C | 37% | 1096.9 hPa | 0 mm | - | 602 W/m² | - |
| 1778171840 | 28.89° C | 33% | 1097.1 hPa | 0 mm | - | 588 W/m² | - |
| 1778171538 | 28.89° C | 34% | 1097.1 hPa | 0 mm | - | 573 W/m² | - |
| 1778171234 | 28.33° C | 35% | 1096.9 hPa | 0 mm | - | 561 W/m² | - |
* Rain latest hour (hover to see other rain measurements)
** Current wind speed in m/s (hover to see current wind gust speed)